Location: Unspecified
(35.6961°N, 0.0000°E)
Time: 14:52:22
(UTC+00:00)

Altair - Pass Details

Date: 22 May 2019
Orbit: 1501 x 1683 km, 47.2° (Epoch: 16 June)

Event Time Altitude Azimuth Distance (km) Brightness Sun altitude
Rises 03:38:13 0° 229° (SW) 4,880 - -13.3°
Reaches altitude 10° 03:41:19 10° 229° (SW) 3,910 - -12.8°
Exits shadow 03:42:36 15° 229° (SW) 3,517 8.7 -12.6°
Maximum altitude 03:51:26 84° 143° (SE) 1,693 7.7 -11.1°
Drops below altitude 10° 04:01:38 10° 57° (ENE) 3,935 11.3 -9.4°
Sets 04:04:46 0° 57° (ENE) 4,913 12.7 -8.9°
